Simultaneous Nadir Overpasses (SNOs) Predictions

Prediction of SNOs between GOES-15 and NPP Satellite Orbit:

Table of predicted SNOs for the next 14.0 days since TLE Epoch: 10/2/2020
Index Date Time (GOES-15) GOES-15 Lat,Lon NPP Lat,Lon Distance(km) Time Diff (sec)
1 10/03/2020 09:49:28 -0.13,-128.45 -0.70,-125.83 297.87 80
2 10/04/2020 22:11:24 0.13,-128.42 -0.45,-131.14 309.38 80
3 10/05/2020 21:49:59 0.13,-128.42 0.54,-126.61 206.90 80
4 10/07/2020 10:11:46 -0.13,-128.45 0.64,-131.88 391.11 80
5 10/08/2020 09:55:41 -0.13,-128.44 -0.40,-127.35 124.87 80
6 10/09/2020 22:17:37 0.13,-128.41 -0.80,-132.65 483.42 80
7 10/10/2020 21:56:11 0.14,-128.40 0.19,-128.12 31.90 80
8 10/13/2020 09:59:14 -0.14,-128.40 -0.05,-128.87 52.45 80
9 10/14/2020 09:43:09 -0.15,-128.39 -1.04,-124.33 462.77 80
10 10/15/2020 22:05:04 0.14,-128.35 -0.15,-129.63 146.14 80
